Regional & State Weather Roundups


810 
ASUS46 KPDT 172325
RWRPDT
PENDLETON REGIONAL WEATHER ROUNDUP
NATIONAL WEATHER SERVICE PENDLETON OREGON
300 PM PST SAT FEB 17 2018
NOTE: FAIR INDICATES FEW OR NO CLOUDS BELOW 12,000 FEET WITH NO
SIGNIFICANT WEATHER AND/OR OBSTRUCTIONS TO VISIBILITY.
# INDICATES UNOFFICIAL STATION AND DATA
WAZ520-180010-
EAST SLOPES OF WASHINGTON CASCADES
CITY            SKY/WX      TMP DP  RH  WIND    PRES   REMARKS
#BULLFROG       N/A         37  34  89  W10G26  N/A                          
#CLE ELUM HS    N/A         37  32  82  SW9     29.46R                       
#EASTON DOT     N/A         33  33  100 N3G24   N/A                          
#ELK HTS DOT    N/A         35  35  100 W6      N/A                          
#GLENWOOD       N/A         43  39  86  SW8     29.62S                       
#NELSON 3SW     N/A         33  31  92  CALM    29.71R                       
#NILE           N/A         40  37  89  CALM    28.77S                       
#TEANAWAY 4NE   N/A         38  34  85  W3      N/A                          
#TROUT LAKE 1NE N/A         42  38  86  SW8     29.64F                       
#TROUT LAKE 1E  N/A         42  39  89  S2      29.64F                       
$$
WAZ521-180010-
SIMCOE HIGHLANDS
CITY            SKY/WX      TMP DP  RH  WIND    PRES   REMARKS
#BICKLETON HS   N/A         44  33  65  NW40    29.20R WCI 33                
#SATUS PASS DOT N/A         40  32  73  W23G38  N/A    WCI 30                
#CENTERVILLE 1SWN/A         46  38  73  W38     29.55F WCI 36                
#GOLDENDALE 1NE N/A         50  21  32  SW15    N/A                          
#GOLDENDALE 4W  N/A         50  29  44  W26     29.62S                       
#GOODNOE HILLS  N/A         51  37  59  W39     29.51R                       
#LYLE 6NE       N/A         48  40  74  W24G37  29.65R WCI 40                
#PITT 4SE       N/A         44  39  82  W26G41  29.65R WCI 35                
$$
WAZ026-180010-
KITTITAS VALLEY
CITY            SKY/WX      TMP DP  RH  WIND    PRES   REMARKS
ELLENSBURG AP   LGT RAIN    42  37  82  NW21G24 29.48R WCI 33                
#ELLENSBURG CWU N/A         41  38  89  N10     29.46R                       
#ELLENSBURG 3NE N/A         39  36  89  N10     27.59R                       
#ELLENSBURG 1E  N/A         42  39  89  N1      29.56S                       
#KITTITAS 3S    N/A         46  39  76  N15G24  29.50R WCI 40                
#MANASTASH RDG  N/A         43  43  100 NW18G30 N/A    WCI 35                
#ROCKY CYN DOT  N/A         37  35  92  NW22    N/A    WCI 26                
#RYEGRASS DOT   N/A         43  33  67  CALM    N/A                          
$$
WAZ027-180010-
YAKIMA VALLEY
CITY            SKY/WX      TMP DP  RH  WIND    PRES   REMARKS
SUNNYSIDE AP    PTCLDY      54  32  43  SW32G47 29.54R                       
YAKIMA AIRPORT  PTCLDY      55  34  45  SW20G32 29.51R                       
YAKIMA-VAGABOND SUNNY       52  33  48  SW20G24 29.48S                       
#DONALD 2NE     N/A         57   1  10  SW1     28.36R                       
#GRANDVIEW      N/A         55  31  40  NW9     29.56R                       
#MABTON         N/A         56  40  55  W9G26   29.53F                       
#NACHES 2SW     N/A         46  37  71  W13G26  29.49S WCI 40                
#OUTLOOK DOT    N/A         55  30  38  SW3     29.46F                       
#PARKER DOT     N/A         54  32  43  E28G37  29.51R                       
#TERRACE HTS    N/A         53  34  48  E5      29.49S                       
#TOPPENISH      N/A         55  34  45  W22G39  29.44S                       
#I82 S UMTANUM RN/A         49  27  42  SW32G48 N/A    WCI 40                
#UNION GAP DOT  N/A         55  30  38  W14G24  N/A                          
#W YAKIMA       N/A         51  34  52  W6      29.53R                       
#WHITE SWAN 5E  N/A         55  37  51  W7G30   29.52R                       
#WILEY CITY 3W  N/A         50  29  44  W12G24  29.47R                       
#ZILLAH DOT     N/A         56  30  37  W23G30  N/A                          
$$
WAZ028-180010-
LOWER COLUMBIA BASIN...WASHINGTON
CITY            SKY/WX      TMP DP  RH  WIND    PRES   REMARKS
PASCO           CLOUDY      61  36  39  SW37G53 29.55R                       
PROSSER AWOS    N/A         57  36  45  W23G35  29.57R                       
RICHLAND AWOS   PTCLDY      59  37  44  SW25G41 29.53R                       
#BENTON CITY    N/A         56  39  53  W7      29.43R                       
#CONNELL 5N     N/A         55  41  59  W22G38  29.46F                       
#CONNELL 5NW    N/A         54  41  61  SW26G41 29.41F                       
#ELTOPIA 6NW    N/A         56  41  57  W22G45  28.47S                       
#KAHLOTUS       N/A         51  42  71  NW37G55 29.48F                       
#KENNEWICK 3S   N/A         55  38  53  W14G31  29.52F                       
#PATERSON       N/A         56  38  51  N32G46  29.59R                       
#PROSSER DOT    N/A         57  37  47  W20G28  29.56R                       
#SAGEMOOR 2W    N/A         55  38  53  W36G48  29.39S                       
#TOUCHET 2S     N/A         56  42  59  W13G31  29.55S                       
#WEST PASCO     N/A         62  39  43  CALM    29.47F                       
$$
WAZ029-180010-
FOOTHILLS OF THE BLUES...WASHINGTON
CITY            SKY/WX      TMP DP  RH  WIND    PRES   REMARKS
WALLA WALLA AP  CLOUDY      52  43  71  S18     29.55F                       
#CLYDE 6NW      N/A         52  42  69  SW31G58 29.52S                       
#DELANEY DOT    N/A         50  43  77  S10     29.53F                       
#LOWDEN 2SE     N/A         56  42  59  W15G29  29.53F                       
#PLEASANT VIEW 1N/A         45  42  89  S16     29.55F WCI 38                
#PRESCOTT       N/A         51  44  77  CALM    29.53F                       
#WHITMAN COLLEGEN/A         53  43  69  SW13    29.62S                       
#WAITSBURG 5S   N/A         47  42  83  S15G26  29.64F WCI 41                
#WAITSBURG 6SSE N/A         49  41  74  SW12    29.38F WCI 44                
#WAITSBURG 8N   N/A          0  N/A N/A S25     29.23F WCI -24               
#WALLA WALLA 5E N/A         51  45  80  SW22G30 N/A                          
#WHITMAN MISSIONN/A         55  45  69  CALM    29.58S                       
$$
WAZ030-180010-
BLUE MOUNTAINS...WASHINGTON
 
CITY            SKY/WX      TMP DP  RH  WIND    PRES   REMARKS
#DIXIE 5SE      N/A         44  39  82  SW24G41 29.47R WCI 35                
$$
ORZ009-041-WAZ024-180010-
COLUMBIA RIVER GORGE
CITY            SKY/WX      TMP DP  RH  WIND    PRES   REMARKS
HOOD RIVER AP   LGT RAIN    50  37  61  W12G24  29.67R                       
THE DALLES AP   MOCLDY      55  N/A N/A W39G56  29.61F                       
#ARLINGTON AIRPON/A         53  39  59  SW35    29.60R                       
#ARLINGTON HS   N/A         56  38  51  W26     29.53R                       
#CELILO DOT     N/A         54  37  52  W12     N/A                          
#LYLE           N/A         54  42  64  W23G38  29.68R                       
#MARYHILL       N/A         54  37  52  N26G35  N/A                          
#MURDOCK        N/A         55  40  57  NW26G47 29.61S                       
#RUFUS DOT      N/A         53  N/A N/A W17G35  N/A                          
#SMITHVILLE     N/A         55  40  57  W28G40  29.58S                       
$$
ORZ510-180010-
NORTH CENTRAL OREGON
CITY            SKY/WX      TMP DP  RH  WIND    PRES   REMARKS
#ANTELOPE       N/A         51  35  54  SW35G46 29.55F                       
#CHENOWITH 1W   N/A         47  40  76  W30G41  N/A    WCI 38                
#COW CYN RST AREN/A         48  32  54  SW23G38 N/A    WCI 40                
#DUFUR          N/A         51  37  59  W21G32  29.59S                       
#DUFUR 9E       N/A         46  37  71  W31G41  29.70R WCI 36                
#GRASS VALLEY 1SN/A         49  38  66  W26G41  29.68S WCI 41                
#KENT DOT       N/A         49  26  40  W22G45  N/A    WCI 42                
#MAUPIN SCHOOL  N/A         53  39  59  W13G26  29.71R                       
#SHANIKO 5WSW   N/A         45  N/A N/A SW41G50 N/A    WCI 34                
#SHANIKO 4NW    N/A         46  32  58  W31G46  29.62S WCI 36                
#TYGH VALLEY 2NEN/A         53  39  59  N21     29.60F                       
#WAPANITIA AIRPON/A         47  38  71  W30G41  29.65R WCI 38                
#WASCO DOT      N/A         53  39  59  W16G35  N/A                          
$$
ORZ511-180010-
CENTRAL OREGON
CITY            SKY/WX      TMP DP  RH  WIND    PRES   REMARKS
BEND AIRPORT    PTCLDY      50  30  46  SW28G40 29.74F                       
PRINEVILLE AP   CLOUDY      54  30  40  W10     29.72F                       
REDMOND AIRPORT CLOUDY      54  31  41  W10     29.72F                       
#ASHWOOD SCHOOL N/A         52  33  48  SW15G29 29.67F                       
#BEND 1SW       N/A         46  36  68  SW2     N/A                          
#BEND-AWBREY    N/A         46  35  65  SW5     29.75F                       
#BEND-KIM LN    N/A         47  34  60  W23G54  29.66F WCI 39                
#CULVER         N/A         49  34  56  SW8     29.59F                       
#CULVER 8W      N/A         50  35  56  W6      29.70F                       
#LAKE BILLY CHINN/A         47  N/A N/A W17     29.77F WCI 40                
#POWELL BUTTE   N/A         52  28  39  S14     29.70F                       
#PRINEVILLE     N/A         53  36  52  W3      29.84F                       
#PRINEVILLE 3N  N/A         51  32  48  W6G28   29.74F                       
#WARM SPRINGS   N/A         56  37  49  CALM    29.54F                       
$$
ORZ509-180010-
EAST SLOPES OF OREGON CASCADES
CITY            SKY/WX      TMP DP  RH  WIND    PRES   REMARKS
SISTERS AWOS    N/A         45  34  65  SW40G56 29.66R WCI 34                
#BLUE BOX PASS  N/A         35  N/A N/A NW12G29 N/A    WCI 27                
#CAMP SHERMAN   N/A         42  37  82  W2      29.83F                       
#LA PINE DOT    N/A         48  31  51  SW23G47 N/A    WCI 40                
#LA PINE 4NW    N/A         43  30  60  W8G24   29.91F                       
#LAVA BUTTE DOT N/A         44  31  60  SE3     N/A                          
#SISTERS ODOT   N/A         45  34  65  SW14G37 N/A    WCI 39                
#SISTERS 3N     N/A         45  31  58  NW15G24 29.91F WCI 38                
#SUNRIVER       N/A         43  33  67  S12     29.79F WCI 37                
#TUMALO 3W      N/A         49  30  48  W13     29.59F WCI 44                
$$
ORZ044-180010-
LOWER COLUMBIA BASIN...OREGON
CITY            SKY/WX      TMP DP  RH  WIND    PRES   REMARKS
HERMISTON       N/A         57  40  53  W36G51  29.58R                       
#BOARDMAN SCHOOLN/A         55  40  57  W15G31  29.61R                       
#BOARDMAN 8SW   N/A         56  39  53  W31     29.59R                       
#ECHO 8SW       N/A         55  36  49  W22     29.61R                       
#I-84 EX 198 DOTN/A         57  35  43  NE45G56 N/A                          
#UMATILLA       N/A         56  38  51  SW22G45 29.52R                       
$$
ORZ507-180010-
NORTHERN FOOTHILLS OF THE BLUES
CITY            SKY/WX      TMP DP  RH  WIND    PRES   REMARKS
PENDLETON AIRPT CLOUDY      55  39  55  W38G46  29.56R                       
#ADAMS 3WNW     N/A         52  42  69  W22G36  29.58F                       
#ATHENA         N/A         50  43  77  SW7     29.62S                       
#CAYUSE         N/A         52  42  69  SW18G26 29.57R                       
#HELIX SCHOOL   N/A         52  39  61  W18G35  29.59R                       
#HELIX 3N       N/A         51  38  61  W35G52  29.61R                       
#HOLDMAN 5SE    N/A         55  39  55  W28G41  29.58R                       
#HOLDMAN 6E     N/A         52  38  59  SW35G45 29.36R                       
#M-F GROVE ELEM N/A         52  42  69  SW8     29.56R                       
#M-FREEWATER 5SEN/A         52  44  74  SW7     29.59R                       
#PENDLETON DNTN N/A         57  37  47  W7      N/A                          
#PDT AQUATIC CTRN/A         57  38  49  SW17G30 29.59S                       
#PDT SUNRIDGE   N/A         56  41  57  SW17G35 29.59F                       
#PENDLETON 6SE  N/A         55  40  57  W22G40  29.56R                       
#PENDLETON 7NW  N/A         54  39  57  W30G47  N/A                          
#PILOT ROCK 1S  N/A         54  36  50  S9      29.60F                       
#PILOT ROCK     N/A         54  40  59  CALM    29.63S                       
#TUTUILLA       N/A         51  40  66  W18G36  29.64F                       
#UMAPINE 2E     N/A         55  44  66  SW12G26 29.54R                       
$$
ORZ508-180010-
SOUTHERN FOOTHILLS OF THE BLUES
CITY            SKY/WX      TMP DP  RH  WIND    PRES   REMARKS
#AJAX           N/A         50  31  48  N35G56  29.79R                       
#CONDON 5W      N/A         46  31  56  SW31G46 29.59R WCI 36                
#FOSSIL SCHOOL  N/A         52  35  52  W15G30  29.62F                       
#HEPPNER EOC    N/A         55  37  51  SW30G45 29.54F                       
#HEPPNER 4NE    N/A         52  39  61  W28G45  29.61F                       
#LEXINGTON 2SE  N/A         61  35  38  CALM    29.56R                       
#MIKKALO        N/A         54  34  47  W24G48  29.73R                       
#OLEX 4N        N/A         51  38  61  W35G47  29.60R                       
#RUGGS 5NE      N/A         54  35  48  SW30G40 29.75R                       
#RUGGS 2SW      N/A         53  36  52  W31G41  29.63F                       
$$
ORZ502-503-180010-
BLUE MOUNTAINS
CITY            SKY/WX      TMP DP  RH  WIND    PRES   REMARKS
MEACHAM         CLOUDY      40  36  85  VRB5    29.59F                       
#BATTLE MTN DOT N/A         41  35  79  S10     N/A                          
#GRANITE        N/A         40  30  67  N2      29.29F                       
#HARDMAN 10S    N/A         43  33  67  S7G39   29.82F                       
#LADD CYN SMT   N/A         36  31  82  SE13G24 N/A    WCI 27                
#LADD CREEK ODOTN/A         37  28  70  SW6     N/A                          
#LONG CREEK HS  N/A         45  41  86  NW10    29.67F                       
#PIKES PEAK     N/A         42  39  89  SW45G63 27.99S WCI 29                
#SUMMERVILLE 5NWN/A         37  34  89  S9      27.58F                       
#TOLLGATE       N/A         32  31  96  SW13    29.65F                       
#TROY SCHOOL    N/A         42  39  89  S1      29.44F                       
#UKIAH          N/A         45  40  82  SW7     29.55F                       
#WESTON 4E      N/A         42  38  86  S12     29.60F WCI 35                
$$
ORZ505-180010-
JOHN DAY BASIN
CITY            SKY/WX      TMP DP  RH  WIND    PRES   REMARKS
JOHN DAY        CLOUDY      53  36  52  W24G46  29.66F                       
#ANTELOPE 9ESE  N/A         57  34  42  SW15G37 N/A                          
#DAYVILLE SCHOOLN/A         56  37  49  W8      29.67S                       
#MITCHELL 8NW   N/A         49  29  46  SW15G39 29.72F WCI 43                
#MONUMENT HS    N/A         51  42  71  E7      29.64R                       
#MT. VERNON 5SE N/A         48  36  63  SE14G31 29.60F WCI 42                
#SPRAY SCHOOL   N/A         56  N/A N/A CALM    N/A                          
$$
ORZ506-180010-
OCHOCO AND JOHN DAY HIGHLANDS
CITY            SKY/WX      TMP DP  RH  WIND    PRES   REMARKS
#HORSE RIDGE DO N/A         48  31  51  W18G31  N/A    WCI 41                
#KEYES SMT DOT  N/A         44  36  73  SW15    N/A    WCI 37                
#PAULINA ODOT   N/A         51  34  52  SW16G39 N/A                          
#PINE MTN OBS   N/A         35  33  92  S9      N/A                          
#PRAIRIE CITY   N/A         49  37  63  W3      29.83F                       
#SENECA         N/A         46  N/A N/A N21G33  N/A    WCI 38                
#SENECA 9NW     N/A         44  35  70  W5      29.79F                       
$$
ORZ049-180010-
GRANDE RONDE VALLEY
CITY            SKY/WX      TMP DP  RH  WIND    PRES   REMARKS
LA GRANDE       LGT RAIN    39  34  82  S16G24  29.65F WCI 30                
#COVE SCHOOL    N/A         44  36  73  S3      29.68F                       
#COVE 6NW       N/A         42  36  79  SE6     29.66F                       
#ELGIN 3N       N/A         39  31  73  SW15    29.59F WCI 31                
#ELGIN 1E       N/A         42  36  79  S7      N/A                          
#IMBLER SCHOOL  N/A         38  34  85  S10G25  29.59F                       
#ISLAND CITY 4N N/A         50  42  74  SW9G24  29.79F                       
#LADD CYN DOT   N/A         40  35  82  SW16G29 N/A    WCI 32                
#UNION 1S       N/A         43  34  70  S5      29.70F                       
$$
ORZ050-180010-
WALLOWA COUNTY
CITY            SKY/WX      TMP DP  RH  WIND    PRES   REMARKS
JOSEPH AIRPORT  LGT RAIN    46  30  53  SW3     29.55F                       
#ENTERPRISE HS  N/A         49  35  58  SW6     29.49F                       
#IMNAHA SCHOOL  N/A         46  33  60  SE18G30 29.59F WCI 39                
#JOSEPH         N/A         46  32  58  N2      29.80F                       
#JOSEPH 3N      N/A         44  27  51  E5      29.63F                       
#JOSEPH 3W      N/A         39  34  82  SW2     29.45F                       
#LOSTINE        N/A         46  36  68  W7      29.39F                       
#LOSTINE 3SE    N/A         44  35  70  SW2     29.61F                       
#MT HOWARD 8000 N/A         28  25  88  SW24G50 29.49F WCI 14                
#WALLOWA LAKE   N/A         40  32  73  SW6     29.55F                       
#WALLOWA SCHOOL N/A         46  37  71  CALM    29.55F                       
$$